Location: Burera
(21.3780°N, 81.9534°E)
Time: 12:30:03
(UTC+00:00)

USA 81 - Pass Details

Date: 13 August 2020
Orbit: 786 x 788 km, 85.0° (Epoch: 17 September)

Event Time Altitude Azimuth Distance (km) Brightness Sun altitude
Rises 23:36:41 0° 359° (N) 3,277 7.5 -8.3°
Reaches altitude 10° 23:39:03 10° 360° (N) 2,346 6.8 -7.8°
Maximum altitude 23:44:19 82° 88° (E) 796 4.2 -6.6°
Drops below altitude 10° 23:49:34 10° 176° (S) 2,338 6.4 -5.5°
Sets 23:51:55 0° 177° (S) 3,264 7.1 -4.9°
